Location: *
(32.8667°N, 13.1833°E)
Time: 08:44:44
(UTC+00:00)

Resurs 01 Rocket - Pass Details

Date: 18 July 2019
Orbit: 634 x 645 km, 98.0° (Epoch: 23 August)

Event Time Altitude Azimuth Distance (km) Brightness Sun altitude
Exits shadow 20:42:13 10° 229° (SW) 2,051 4.2 -25.2°
Reaches altitude 10° 20:42:18 10° 230° (SW) 2,032 4.2 -25.2°
Maximum altitude 20:44:54 15° 266° (W) 1,707 4.2 -25.5°
Drops below altitude 10° 20:47:31 10° 302° (WNW) 2,036 5.1 -25.9°
Sets 20:50:35 0° 325° (NW) 2,948 6.4 -26.3°
